�N����,����,�~����,�C��,���x,�C��,����,���ϕ���,�ő�u�ԕ���,�ő厞����,���˗�,�I�_���x,�n�����x,�ő啗���N��,DTYPE
"19/06/20","00:10",0.0,20.3,84.5,999.3,300.9,0.7,1.0,312.6,0.00,17.6,22.4,"00:02:32",1
"19/06/20","00:20",0.0,20.2,85.8,999.6,293.5,1.0,1.7,314.1,0.00,17.8,22.2,"00:10:02",1
"19/06/20","00:30",0.0,20.3,86.0,999.3,283.7,1.0,1.3,299.7,0.00,17.9,22.4,"00:23:28",1
"19/06/20","00:40",0.0,20.3,85.9,999.6,277.9,0.8,1.1,270.1,0.00,17.9,22.1,"00:32:00",1
"19/06/20","00:50",0.0,20.3,86.1,999.3,274.5,1.0,1.9,267.6,0.00,17.9,22.0,"00:44:40",1
"19/06/20","01:00",0.0,20.2,86.4,999.6,287.2,1.1,1.9,304.0,0.00,17.9,22.1,"00:50:48",1
"19/06/20","01:10",0.0,20.1,86.5,999.8,301.6,1.1,1.7,317.8,0.00,17.8,22.0,"01:06:24",1
"19/06/20","01:20",0.0,20.0,86.5,999.8,299.6,1.1,1.4,321.0,0.00,17.7,21.7,"01:11:44",1
"19/06/20","01:30",0.0,20.0,87.0,999.6,305.8,1.3,2.2,306.9,0.00,17.8,21.8,"01:29:36",1
"19/06/20","01:40",0.0,20.0,87.2,999.1,305.7,1.3,2.1,309.8,0.00,17.8,21.6,"01:33:20",1
"19/06/20","01:50",0.0,19.9,87.3,999.6,315.9,1.7,2.4,329.7,0.00,17.8,21.6,"01:41:52",1
"19/06/20","02:00",0.0,19.8,87.5,999.6,331.6,1.7,2.6,338.5,0.00,17.7,21.6,"01:57:12",1
"19/06/20","02:10",0.0,20.0,87.9,998.9,335.2,1.8,3.3,330.3,0.00,18.0,21.7,"02:06:48",1
"19/06/20","02:20",0.0,20.3,87.6,998.9,332.9,2.5,3.3,333.9,0.00,18.2,21.5,"02:13:44",1
"19/06/20","02:30",0.0,20.4,87.1,999.1,328.8,2.5,4.0,338.5,0.00,18.2,21.4,"02:20:16",1
"19/06/20","02:40",0.0,20.4,86.7,999.3,325.7,2.5,4.5,325.1,0.00,18.1,21.5,"02:30:24",1
"19/06/20","02:50",0.0,20.5,86.6,999.1,330.2,2.5,4.1,325.9,0.00,18.2,21.4,"02:45:28",1
"19/06/20","03:00",0.0,20.4,86.5,999.6,328.7,2.2,3.5,307.5,0.00,18.1,21.5,"02:54:40",1
"19/06/20","03:10",0.0,20.5,86.5,999.3,328.2,2.3,3.6,328.4,0.00,18.2,21.4,"03:00:16",1
"19/06/20","03:20",0.0,20.4,86.3,999.3,327.3,2.1,3.4,332.2,0.00,18.1,21.4,"03:18:00",1
"19/06/20","03:30",0.0,20.3,86.3,999.6,327.5,2.2,3.9,316.6,0.00,18.0,21.3,"03:23:28",1
"19/06/20","03:40",0.0,20.2,86.5,999.3,329.8,2.1,3.9,332.4,0.00,17.9,21.2,"03:36:56",1
"19/06/20","03:50",0.0,19.9,86.9,999.1,330.5,1.8,3.1,321.6,0.00,17.7,21.3,"03:42:40",1
"19/06/20","04:00",0.0,19.9,87.5,999.3,328.7,2.0,3.2,321.9,0.00,17.8,21.3,"03:55:52",1
"19/06/20","04:10",0.0,19.7,87.7,999.1,332.8,1.7,3.2,332.4,0.00,17.6,21.2,"04:02:00",1
"19/06/20","04:20",0.0,19.6,88.3,999.6,324.9,1.7,2.2,334.1,0.00,17.7,21.2,"04:12:32",1
"19/06/20","04:30",0.0,19.6,88.7,999.3,320.8,1.5,2.8,322.0,0.00,17.7,21.1,"04:26:16",1
"19/06/20","04:40",0.0,19.7,88.8,999.8,332.7,1.6,2.6,321.4,0.00,17.8,21.0,"04:34:08",1
"19/06/20","04:50",0.0,19.7,88.8,999.6,340.9,1.5,2.6,339.5,0.00,17.8,21.0,"04:40:16",1
"19/06/20","05:00",0.0,19.8,88.9,999.6,330.1,1.5,2.9,329.8,0.00,18.0,21.2,"04:52:00",1
"19/06/20","05:10",0.0,19.8,88.8,999.6,332.1,1.6,2.7,314.7,0.00,17.9,21.2,"05:05:20",1
"19/06/20","05:20",0.0,19.9,88.7,1000.0,340.8,1.5,2.5,341.7,0.00,18.0,21.1,"05:14:40",1
"19/06/20","05:30",0.0,20.0,88.7,1000.0,327.9,2.2,4.2,338.6,0.00,18.1,20.9,"05:26:56",1
"19/06/20","05:40",0.0,20.1,88.4,999.8,312.4,1.8,2.9,314.7,0.00,18.2,20.9,"05:35:52",1
"19/06/20","05:50",0.0,20.2,88.3,1000.0,325.6,1.7,2.7,324.0,0.00,18.2,21.1,"05:47:20",1
"19/06/20","06:00",0.0,20.2,88.0,1000.0,322.7,1.7,2.2,330.8,0.00,18.2,21.1,"05:51:20",1
"19/06/20","06:10",0.0,20.2,87.8,1000.0,323.2,1.7,4.1,337.4,0.00,18.2,21.0,"06:06:56",1
"19/06/20","06:20",0.0,20.3,87.5,999.8,330.1,1.5,2.7,320.8,0.01,18.2,21.1,"06:11:12",1
"19/06/20","06:30",0.0,20.5,87.4,1000.5,327.2,1.7,2.7,332.5,0.02,18.4,20.8,"06:26:32",1
"19/06/20","06:40",0.0,20.6,87.2,1000.0,324.9,1.7,2.6,342.3,0.04,18.4,21.2,"06:35:20",1
"19/06/20","06:50",0.0,20.8,86.8,1000.5,325.1,1.8,3.3,330.9,0.05,18.6,21.3,"06:41:52",1
"19/06/20","07:00",0.0,21.1,86.1,1000.5,327.6,1.6,2.4,337.7,0.06,18.7,21.2,"06:59:12",1
"19/06/20","07:10",0.0,21.3,85.7,1000.3,321.4,1.7,3.1,336.5,0.07,18.8,21.3,"07:03:52",1
"19/06/20","07:20",0.0,21.7,84.4,1000.5,325.9,1.7,3.1,313.6,0.10,19.0,21.2,"07:10:24",1
"19/06/20","07:30",0.0,21.9,82.6,1000.3,314.7,1.3,2.8,342.9,0.10,18.8,21.3,"07:23:44",1
"19/06/20","07:40",0.0,22.0,82.1,1000.3,325.4,1.6,2.9,332.9,0.12,18.8,21.4,"07:32:08",1
"19/06/20","07:50",0.0,21.9,81.6,1000.3,302.0,1.5,3.3,335.2,0.11,18.7,21.4,"07:41:52",1
"19/06/20","08:00",0.0,21.6,82.3,1000.3,326.2,2.3,4.9,332.9,0.09,18.5,21.5,"07:57:36",1
"19/06/20","08:10",0.0,22.0,82.2,1000.0,308.2,1.1,3.2,320.1,0.12,18.9,21.5,"08:00:08",1
"19/06/20","08:20",0.0,23.0,78.6,999.8,317.5,1.1,2.5,345.7,0.23,19.1,21.5,"08:18:24",1
"19/06/20","08:30",0.0,23.8,76.1,999.6,310.8,1.3,3.4,351.5,0.26,19.4,21.6,"08:26:00",1
"19/06/20","08:40",0.0,24.3,73.5,1000.3,332.1,1.3,3.6,349.4,0.28,19.3,21.9,"08:37:12",1
"19/06/20","08:50",0.0,24.8,72.9,999.8,3.2,1.2,2.6,349.1,0.30,19.7,21.9,"08:43:28",1
"19/06/20","09:00",0.0,25.2,69.3,999.6,355.3,1.6,3.6,336.5,0.32,19.2,21.9,"08:50:16",1
"19/06/20","09:10",0.0,25.7,67.8,999.8,0.7,1.1,2.6,343.4,0.34,19.3,22.3,"09:04:08",1
"19/06/20","09:20",0.0,25.7,67.9,998.9,83.8,0.6,1.7,66.7,0.35,19.4,22.6,"09:14:32",1
"19/06/20","09:30",0.0,26.4,68.6,999.3,114.9,0.7,1.9,137.9,0.37,20.2,22.5,"09:22:00",1
"19/06/20","09:40",0.0,26.5,64.5,999.3,133.3,0.7,1.6,126.3,0.40,19.3,22.7,"09:33:36",1
"19/06/20","09:50",0.0,26.7,63.2,1000.0,147.5,1.1,2.4,116.5,0.41,19.2,22.9,"09:41:28",1
"19/06/20","10:00",0.0,27.1,60.4,1000.0,114.6,0.7,2.4,214.7,0.43,18.8,23.0,"09:58:24",1
"19/06/20","10:10",0.0,26.9,59.3,1000.3,204.9,1.6,2.9,194.7,0.46,18.3,23.3,"10:08:00",1
"19/06/20","10:20",0.0,26.9,58.8,1000.3,205.7,1.6,3.5,203.3,0.41,18.2,23.2,"10:16:00",1
"19/06/20","10:30",0.0,27.6,60.0,1000.3,221.8,1.0,2.8,227.4,0.40,19.2,23.3,"10:26:24",1
"19/06/20","10:40",0.0,28.2,57.3,1000.5,213.2,1.1,3.4,228.2,0.53,19.0,23.7,"10:35:12",1
"19/06/20","10:50",0.0,28.8,58.6,1000.5,348.3,1.5,3.3,3.8,0.54,19.9,23.8,"10:44:32",1
"19/06/20","11:00",0.0,28.1,55.9,1000.5,11.9,1.0,3.5,23.0,0.58,18.5,24.2,"10:54:00",1
"19/06/20","11:10",0.0,28.0,56.9,1000.5,204.0,1.6,6.2,196.8,0.40,18.7,24.5,"11:06:16",1
"19/06/20","11:20",0.0,27.7,60.3,1000.5,350.1,1.3,3.6,345.9,0.21,19.4,24.3,"11:19:04",1
"19/06/20","11:30",0.0,29.2,56.5,1000.0,336.9,1.1,3.2,344.2,0.49,19.7,24.7,"11:27:36",1
"19/06/20","11:40",0.0,28.4,57.7,1000.3,269.7,1.1,3.2,197.4,0.30,19.3,25.0,"11:38:16",1
"19/06/20","11:50",0.0,29.7,55.4,999.8,269.5,1.2,2.9,221.1,0.59,19.9,25.1,"11:42:08",1
"19/06/20","12:00",0.0,29.5,53.8,1000.3,218.4,1.1,3.2,237.7,0.54,19.2,25.3,"11:52:32",1
"19/06/20","12:10",0.0,28.3,54.0,1000.3,264.7,1.3,3.1,231.8,0.47,18.1,25.6,"12:08:32",1
"19/06/20","12:20",0.0,29.8,50.3,1000.3,276.2,1.3,4.2,352.2,0.61,18.4,25.9,"12:16:56",1
"19/06/20","12:30",0.0,30.2,52.1,1000.5,316.7,1.7,4.5,320.1,0.67,19.3,26.1,"12:25:44",1
"19/06/20","12:40",0.0,30.2,48.7,1000.3,339.9,1.2,4.2,342.3,0.64,18.2,26.5,"12:33:20",1
"19/06/20","12:50",0.0,30.2,50.3,1000.8,273.0,1.6,4.0,332.2,0.59,18.8,26.3,"12:40:16",1
"19/06/20","13:00",0.0,30.4,47.8,1000.3,234.8,1.2,3.3,216.2,0.58,18.1,26.8,"12:55:52",1
"19/06/20","13:10",0.0,30.6,45.6,1000.3,234.2,1.7,4.1,228.6,0.61,17.6,27.0,"13:00:40",1
"19/06/20","13:20",0.0,30.3,43.8,1000.3,246.4,1.2,4.4,345.2,0.62,16.7,27.2,"13:18:32",1
"19/06/20","13:30",0.0,31.1,44.5,1000.3,331.5,1.7,4.0,339.7,0.62,17.6,27.1,"13:25:36",1
"19/06/20","13:40",0.0,31.5,43.9,1000.0,271.3,1.3,4.9,320.7,0.61,17.8,26.8,"13:34:56",1
"19/06/20","13:50",0.0,31.0,43.1,1000.0,238.3,1.6,4.2,226.9,0.61,17.0,26.6,"13:40:16",1
"19/06/20","14:00",0.0,30.9,44.9,999.8,229.5,2.1,4.4,221.4,0.58,17.6,26.8,"13:58:16",1
"19/06/20","14:10",0.0,31.7,41.8,999.8,278.9,1.3,3.4,226.3,0.56,17.2,27.0,"14:02:48",1
"19/06/20","14:20",0.0,31.3,41.4,999.8,292.2,1.3,3.6,353.9,0.57,16.7,26.8,"14:11:44",1
"19/06/20","14:30",0.0,31.5,39.3,999.3,262.4,1.1,4.5,226.4,0.55,16.0,27.0,"14:28:24",1
"19/06/20","14:40",0.0,31.3,40.2,999.6,307.9,1.6,3.9,276.4,0.53,16.2,27.4,"14:35:36",1
"19/06/20","14:50",0.0,31.7,38.5,999.6,289.8,1.0,2.2,257.1,0.52,15.9,27.2,"14:48:16",1
"19/06/20","15:00",0.0,31.8,36.1,999.3,319.8,1.0,3.1,337.9,0.50,15.0,27.3,"14:52:32",1
"19/06/20","15:10",0.0,30.6,36.8,999.3,287.6,1.3,2.7,340.8,0.37,14.2,27.4,"15:01:28",1
"19/06/20","15:20",0.0,31.7,36.1,999.1,217.7,1.8,4.7,204.8,0.47,14.9,27.5,"15:14:24",1
"19/06/20","15:30",0.0,31.7,35.3,999.1,295.5,1.5,3.2,327.8,0.46,14.5,27.7,"15:20:40",1
"19/06/20","15:40",0.0,31.9,38.1,999.1,276.2,1.3,3.3,22.0,0.43,15.9,27.5,"15:30:40",1
"19/06/20","15:50",0.0,31.9,37.8,999.1,324.5,1.3,4.0,345.5,0.41,15.8,27.7,"15:40:48",1
"19/06/20","16:00",0.0,31.8,35.6,998.9,305.6,1.0,2.9,344.9,0.38,14.8,27.7,"15:56:16",1
"19/06/20","16:10",0.0,31.6,35.5,999.1,334.0,2.1,4.8,336.7,0.31,14.5,27.7,"16:04:08",1
"19/06/20","16:20",0.0,32.5,34.8,999.1,352.9,1.2,3.7,326.9,0.33,15.0,27.4,"16:15:04",1
"19/06/20","16:30",0.0,32.3,34.0,998.6,323.0,1.1,4.1,1.4,0.31,14.5,27.7,"16:27:28",1
"19/06/20","16:40",0.0,32.0,34.0,998.9,307.2,1.5,3.7,334.6,0.28,14.2,27.5,"16:35:20",1
"19/06/20","16:50",0.0,32.0,34.6,998.4,9.3,1.6,2.8,8.7,0.26,14.5,27.7,"16:41:36",1
"19/06/20","17:00",0.0,32.0,34.1,998.6,319.9,1.2,2.9,336.5,0.23,14.3,27.2,"16:50:48",1
"19/06/20","17:10",0.0,31.8,32.7,998.9,296.0,1.1,3.2,301.1,0.20,13.5,27.3,"17:05:28",1
"19/06/20","17:20",0.0,31.8,35.4,998.6,300.0,1.0,2.2,213.1,0.06,14.7,27.3,"17:14:24",1
"19/06/20","17:30",0.0,31.4,35.8,998.9,338.9,1.3,2.7,351.9,0.04,14.5,27.4,"17:24:32",1
"19/06/20","17:40",0.0,31.1,36.9,998.6,334.0,1.3,3.4,298.8,0.04,14.7,27.2,"17:31:52",1
"19/06/20","17:50",0.0,31.1,38.8,998.4,6.2,1.0,2.4,31.9,0.04,15.5,27.1,"17:47:28",1
"19/06/20","18:00",0.0,30.5,39.1,998.6,11.4,1.0,2.4,14.9,0.04,15.1,27.2,"17:50:08",1
"19/06/20","18:10",0.0,30.5,40.2,998.2,31.6,0.5,1.2,1.7,0.05,15.5,26.8,"18:02:56",1
"19/06/20","18:20",0.0,30.1,46.6,998.6,105.0,0.6,1.8,42.5,0.05,17.5,26.7,"18:10:48",1
"19/06/20","18:30",0.0,30.0,50.1,998.6,111.3,0.6,2.0,148.4,0.04,18.5,26.7,"18:20:02",1
"19/06/20","18:40",0.0,29.0,52.2,998.4,118.5,1.1,2.8,123.3,0.03,18.3,26.7,"18:32:24",1
"19/06/20","18:50",0.0,28.7,53.5,998.2,97.7,1.0,2.4,125.6,0.03,18.4,26.3,"18:47:36",1
"19/06/20","19:00",0.0,28.2,55.0,998.4,71.7,0.8,2.0,99.2,0.01,18.3,26.2,"18:53:44",1
"19/06/20","19:10",0.0,27.9,56.3,997.9,81.3,0.7,1.9,53.3,0.00,18.4,26.2,"19:00:02",1
"19/06/20","19:20",0.0,27.6,56.9,998.4,63.4,0.6,1.4,110.2,0.00,18.3,26.1,"19:12:24",1
"19/06/20","19:30",0.0,27.4,57.8,998.4,56.7,0.5,1.6,37.1,0.00,18.4,25.9,"19:28:56",1
"19/06/20","19:40",0.0,27.3,58.1,998.6,356.9,0.8,1.4,344.6,0.00,18.4,25.6,"19:36:00",1
"19/06/20","19:50",0.0,27.0,59.1,998.6,15.9,0.6,1.2,9.0,0.00,18.4,25.4,"19:45:44",1
"19/06/20","20:00",0.0,26.5,60.4,999.1,348.3,0.7,1.6,61.7,0.00,18.3,25.7,"19:55:04",1
"19/06/20","20:10",0.0,25.7,61.2,999.1,340.3,1.1,1.7,340.7,0.00,17.7,25.5,"20:02:48",1
"19/06/20","20:20",0.0,25.3,62.5,1000.0,317.8,1.1,2.5,326.7,0.00,17.7,25.4,"20:18:48",1
"19/06/20","20:30",0.0,25.3,60.9,1000.0,323.6,1.7,2.7,330.7,0.00,17.3,25.2,"20:24:08",1
"19/06/20","20:40",0.0,25.2,61.7,999.8,334.5,1.0,2.4,317.3,0.00,17.4,25.1,"20:34:00",1
"19/06/20","20:50",0.0,24.7,63.4,1000.0,299.5,0.5,0.8,302.7,0.00,17.3,25.1,"20:44:16",1
"19/06/20","21:00",0.0,24.4,64.6,1000.5,282.8,0.3,0.8,306.4,0.00,17.3,24.7,"20:50:16",1
"19/06/20","21:10",0.0,24.3,66.8,1000.8,298.3,0.3,0.8,242.8,0.00,17.8,24.7,"21:07:20",1
"19/06/20","21:20",0.0,24.0,69.4,1000.8,292.8,0.8,2.0,272.4,0.00,18.1,24.5,"21:19:20",1
"19/06/20","21:30",0.0,24.5,67.4,1001.5,274.7,0.7,1.2,285.7,0.00,18.1,24.6,"21:25:36",1
"19/06/20","21:40",0.0,24.9,64.4,1001.5,0.6,0.7,1.4,339.8,0.00,17.8,24.3,"21:33:44",1
"19/06/20","21:50",0.0,24.9,65.3,1001.2,319.9,1.2,2.0,341.2,0.00,18.0,24.2,"21:41:44",1
"19/06/20","22:00",0.0,24.4,65.6,1001.0,296.9,1.0,1.4,326.8,0.00,17.6,24.6,"21:56:00",1
"19/06/20","22:10",0.0,23.8,68.2,1001.7,306.8,1.2,2.4,333.2,0.00,17.6,24.2,"22:04:16",1
"19/06/20","22:20",0.0,23.6,69.7,1001.7,330.4,1.2,2.0,339.1,0.00,17.8,24.3,"22:14:56",1
"19/06/20","22:30",0.0,23.2,71.4,1001.7,323.9,1.1,2.1,338.2,0.00,17.8,24.0,"22:28:56",1
"19/06/20","22:40",0.0,22.9,72.6,1002.2,300.1,1.2,2.0,321.1,0.00,17.8,23.9,"22:33:36",1
"19/06/20","22:50",0.0,22.4,74.0,1001.9,288.2,0.8,1.4,324.3,0.00,17.6,23.9,"22:44:40",1
"19/06/20","23:00",0.0,22.3,74.3,1002.2,297.0,0.7,1.1,297.7,0.00,17.5,23.7,"22:50:32",1
"19/06/20","23:10",0.0,22.0,75.4,1001.9,284.0,1.1,1.4,274.9,0.00,17.5,23.6,"23:05:40",1
"19/06/20","23:20",0.0,22.0,74.8,1002.4,300.5,1.1,1.7,307.0,0.00,17.4,23.5,"23:14:08",1
"19/06/20","23:30",0.0,21.9,74.1,1002.2,309.5,1.0,1.8,318.2,0.00,17.1,23.5,"23:22:00",1
"19/06/20","23:40",0.0,21.5,74.4,1002.6,287.7,0.8,1.2,308.3,0.00,16.8,23.3,"23:38:24",1
"19/06/20","23:50",0.0,21.6,74.1,1002.2,309.3,1.3,1.7,315.3,0.00,16.8,23.2,"23:46:32",1
"19/06/20","24:00",0.0,21.5,74.3,1002.4,310.1,0.6,1.2,324.7,0.00,16.8,23.1,"23:55:36",1
